Location: Kelshall
(52.0000°N, 0.0500°W)
Time: 20:46:56
(UTC+00:00)

ATLAS 2AS CENTAUR R/B - Pass Details

Date: 20 January 2021
Orbit: 947 x 1265 km, 63.7° (Epoch: 13 February)

Event Time Altitude Azimuth Distance (km) Brightness Sun altitude
Rises 21:54:32 0° 304° (NW) 4,195 6.5 -48.3°
Reaches altitude 10° 21:57:35 10° 311° (NW) 3,199 5.7 -48.7°
Enters shadow 22:00:22 22° 323° (NW) 2,370 4.8 -49.0°
